This is the latest recevied weather packets stored in our database for station/object IZ2XCK-13. If no packets are shown the sender has not sent any weather packets the latest 10 day(s).
| Time | Temp. | Humidity | Pressure | Rain* | Wind** | Luminosity | Snow |
|---|---|---|---|---|---|---|---|
| 1778153105 | 17.22° C | 57% | 1014.5 hPa | - | - | - | - |
| 1778151904 | 17.22° C | 56% | 1014.6 hPa | - | - | - | - |
| 1778150704 | 16.11° C | 60% | 1014.5 hPa | - | - | - | - |
| 1778149504 | 15° C | 57% | 1014.6 hPa | - | - | - | - |
| 1778148303 | 15.56° C | 61% | 1014.9 hPa | - | - | - | - |
| 1778147103 | 15° C | 64% | 1014.8 hPa | - | - | - | - |
| 1778145903 | 14.44° C | 61% | 1014.7 hPa | - | - | - | - |
| 1778144703 | 14.44° C | 64% | 1014.6 hPa | - | - | - | - |
| 1778143502 | 15° C | 64% | 1014.6 hPa | - | - | - | - |
| 1778142302 | 13.89° C | 65% | 1014.4 hPa | - | - | - | - |
| 1778141102 | 13.33° C | 66% | 1014.3 hPa | - | - | - | - |
| 1778139901 | 12.78° C | 71% | 1014.3 hPa | - | - | - | - |
| 1778138701 | 12.78° C | 70% | 1014.2 hPa | - | - | - | - |
| 1778137501 | 12.22° C | 73% | 1014.1 hPa | - | - | - | - |
| 1778136300 | 11.67° C | 74% | 1014.3 hPa | - | - | - | - |
| 1778135100 | 11.11° C | 75% | 1014.2 hPa | - | - | - | - |
| 1778133900 | 10.56° C | 75% | 1014 hPa | - | - | - | - |
| 1778132700 | 9.44° C | 79% | 1013.9 hPa | - | - | - | - |
| 1778131499 | 9.44° C | 82% | 1013.9 hPa | - | - | - | - |
| 1778130299 | 9.44° C | 80% | 1013.9 hPa | - | - | - | - |
| 1778129099 | 10.56° C | 85% | 1013.8 hPa | - | - | - | - |
| 1778127898 | 10° C | 84% | 1013.7 hPa | - | - | - | - |
| 1778126698 | 10° C | 85% | 1013.6 hPa | - | - | - | - |
| 1778125498 | 10° C | 87% | 1013.4 hPa | - | - | - | - |
| 1778124297 | 10.56° C | 87% | 1013.2 hPa | - | - | - | - |
* Rain since midnight (hover to see other rain measurements)
** Current wind speed in m/s (hover to see current wind gust speed)